DONNELLS (DON)

Elevation: 4835' · STANISLAUS R basin · Operator: US Bureau of Reclamation

Provisional data, subject to change.
Query executed Sunday at 10:06:56   clock

Select a sensor type for a plot of data.
Note: Reservoir Flows are daily averages.

Earlier

Date STORAGE    RES CHG    OUTFLOW   
 AF   AF   CFS  
03/20/2015 22860 308 77
03/21/2015 23147 287 87
03/22/2015 23400 253 93
03/23/2015 23704 304 82
03/24/2015 23965 261 85
03/25/2015 24182 217 82
03/26/2015 24406 224 81
03/27/2015 24645 239 94
03/28/2015 24990 345 55
03/29/2015 25333 343 76
03/30/2015 25731 398 81
03/31/2015 26108 377 102
04/01/2015 26420 312 87
04/02/2015 26674 254 89
04/03/2015 26893 219 83
04/04/2015 27116 223 76
04/05/2015 27313 197 86
04/06/2015 27486 173 95
04/07/2015 27664 178 99
04/08/2015 27830 166 85
04/09/2015 28042 212 86
04/10/2015 28257 215 99
04/11/2015 28534 277 86
04/12/2015 28770 -- 110
04/13/2015 29042 272 108
04/14/2015 29325 283 111
04/15/2015 29618 293 79
04/16/2015 29864 246 85
04/17/2015 30109 245 84
04/18/2015 30345 236 104
04/19/2015 -- -- --

Later | Latest

Warning! This data is preliminary and subject to revision.

Show DON Map | Plot DON Data | 1 Month DON Data | Real-Time DON Data | DON Info